Weather observations for the past three days for
Ramona, Ramona Airport
Imperial (Metric)
Date Time (pdt) Wind (mph) Vis. (mi.) Weather Sky Cond. Temperature (ºF) Relative Humidity Wind Chill (°F) Heat Index (°F) Pressure Precipitation (in)
Air Dwpt 6 hour altimeter (in) sea level (mb) 1 hr 3 hr 6 hr
Max. Min.
22 13:53 W 10 10.00 Fair CLR 93.9 64.9 38% 96 29.87 1009.4
22 12:53 NW 9 10.00 Fair CLR 93 64 38% 95 29.88 1009.9
22 11:53 W 8 10.00 Fair CLR 91 64 41% 93 29.89 1010.2
22 10:53 NW 9 10.00 Fair CLR 89.1 63 89.1 63 42% 90 29.9 1010.6
22 09:53 NW 10 6.00 Fair with Haze CLR 84.9 63 48% 86 29.9 1010.6
22 08:53 Vrbl 5 10.00 Fair CLR 82.9 62.1 49% 84 29.9 1010.6
22 07:53 Calm 10.00 Fair CLR 75.9 62.1 62% 78 29.89 1010.6
22 06:53 Calm 9.00 Fair CLR 68 61 78% 29.89 1010.5
22 05:53 Calm 9.00 Fair CLR 63 59 87% 29.89 1010.4
22 04:53 Calm 10.00 Fair CLR 64 59 71.1 62.1 84% 29.88 1010.2
22 03:53 Calm 9.00 Fair CLR 63 59 87% 29.88 1010.0
22 02:53 Calm 9.00 Fair CLR 66 61 84% 29.89 1010.1
22 01:53 Calm 9.00 Fair CLR 66.9 61 81% 29.89 1010.4
22 00:53 W 3 10.00 Fair CLR 66.9 60.1 79% 29.9 1010.6
21 23:53 W 5 9.00 Fair CLR 66 60.1 81% 29.91 1011.0
21 22:53 Calm 10.00 Fair CLR 69.1 61 88 68 76% 29.91 1011.1
21 21:53 W 3 10.00 Fair CLR 68 61 78% 29.92 1011.5
21 20:53 NW 3 10.00 Fair CLR 72 62.1 71% 29.91 1011.1
21 19:53 W 3 10.00 Fair CLR 75 62.1 64% 77 29.9 1010.8
21 18:53 W 10 10.00 Fair CLR 81 63 54% 82 29.89 1010.6
21 17:53 W 9 10.00 Fair CLR 86 63 46% 87 29.89 1010.4
21 16:53 W 10 10.00 Fair CLR 88 63 93.9 88 43% 89 29.9 1010.6
21 15:53 W 10 10.00 Fair CLR 90 63 41% 91 29.91 1010.9
21 14:53 W 10 10.00 Fair CLR 91 63 39% 92 29.91 1011.0
21 13:53 W 10 10.00 Fair CLR 93 64 38% 95 29.92 1011.4
21 12:53 W 10 10.00 Fair CLR 91.9 64 40% 94 29.93 1011.6
21 11:53 NW 8 10.00 Fair CLR 91.9 64 40% 94 29.94 1011.9
21 10:53 NW 12 10.00 Fair CLR 88 64 89.1 64 45% 89 29.94 1012.0
21 09:53 NW 10 10.00 Fair CLR 86 61 43% 86 29.94 1012.0
21 08:53 Calm 10.00 Fair CLR 87.1 50 28% 84 29.93 1011.6
21 07:53 Calm 10.00 Fair CLR 80.1 54 41% 80 29.92 1011.2
21 06:53 Calm 10.00 Fair CLR 69.1 57 66% 29.91 1011.2
21 05:53 Calm 10.00 Fair CLR 64.9 57.9 78% 29.9 1010.6
21 04:53 Calm 10.00 Fair CLR 66.9 57.9 73 66 73% 29.9 1010.4
21 03:53 Calm 10.00 Fair CLR 68 60.1 76% 29.9 1010.4
21 02:53 W 3 10.00 Fair CLR 66.9 60.1 79% 29.91 1010.7
21 01:53 Calm 10.00 Fair CLR 66.9 55.9 68% 29.91 1010.8
21 00:53 Calm 10.00 Fair CLR 68 57 68% 29.92 1011.2
20 23:53 Calm 10.00 Fair CLR 70 57 64% 29.94 1011.7
20 22:53 Calm 10.00 Fair CLR 72 57.9 96.1 70 61% 29.94 1012.0
20 21:53 Calm 10.00 Fair CLR 73 57.9 59% 29.94 1011.8
20 20:53 Calm 10.00 Fair CLR 77 57.9 52% 79 29.93 1011.4
20 19:53 NW 6 10.00 Fair CLR 81 57.9 45% 81 29.92 1011.2
20 18:53 NW 10 10.00 Fair CLR 87.1 55 34% 85 29.91 1011.0
20 17:53 NW 12 10.00 Fair CLR 91.9 55 29% 90 29.91 1010.9
20 16:53 W 10 10.00 Fair CLR 96.1 55 102 93.9 25% 94 29.91 1011.0
20 15:53 W 12 10.00 Fair CLR 99 50 19% 96 29.92 1011.3
20 14:53 W 9 10.00 Fair CLR 100 51.1 19% 97 29.94 1011.8
20 13:53 W 8 G 16 10.00 Fair CLR 100.9 50 18% 98 29.94 1012.0
20 12:53 NW 10 G 20 10.00 Fair CLR 100 50 18% 97 29.96 1012.5
20 11:53 W 12 10.00 Fair CLR 98.1 48 18% 95 29.97 1013.0
20 10:53 NW 9 10.00 Fair CLR 93.9 57 96.1 61 29% 93 29.98 1013.3
20 09:53 W 8 2.50 Fair with Haze CLR 96.1 44.1 17% 92 29.97 1012.9
20 08:53 Calm 10.00 Fair CLR 91 42.1 18% 87 29.97 1013.0
20 07:53 E 5 10.00 Fair CLR 81 46.9 30% 80 29.98 1013.3
20 06:53 Calm 10.00 Fair CLR 66.9 57.9 73% 29.97 1013.1
20 05:53 E 3 10.00 Fair CLR 61 55 81% 29.95 1012.7
20 04:53 Calm 10.00 Fair CLR 64 55 71.1 60.1 73% 29.95 1012.2
20 03:53 Calm 10.00 Fair CLR 63 55.9 78% 29.94 1012.1
20 02:53 Calm 10.00 Fair CLR 64.9 57 76% 29.94 1012.0
20 01:53 Calm 10.00 Fair CLR 64 57 78% 29.95 1012.4
20 00:53 Calm 10.00 Fair CLR 66.9 57.9 73% 29.96 1012.6
19 23:53 Calm 10.00 Fair CLR 66 57 73% 29.97 1013.0
19 22:53 Calm 10.00 Fair CLR 70 59 93.9 70 68% 29.98 1013.2
19 21:53 NE 3 10.00 Fair CLR 73.9 60.1 62% 29.98 1013.2
19 20:53 Calm 10.00 Fair CLR 75.9 60.1 58% 78 29.98 1013.1
19 19:53 W 7 10.00 Fair CLR 79 61 54% 80 29.96 1012.7
19 18:53 NW 5 10.00 Fair CLR 88 59 38% 87 29.95 1012.4
19 17:53 NW 8 10.00 Fair CLR 90 61 38% 90 29.95 1012.4
19 16:53 Vrbl 7 10.00 Fair CLR 93 60.1 97 91.9 33% 93 29.95 1012.4
19 15:53 NW 12 10.00 Fair CLR 95 59 30% 94 29.96 1012.7
19 14:53 W 12 10.00 Fair CLR 96.1 57.9 28% 95 29.98 1013.3
Date Time (pdt) Wind (mph) Vis. (mi.) Weather Sky Cond. Air Dwpt Max. Min. Relative Humidity Wind Chill (°F) Heat Index (°F) altimeter (in) sea level (mb) 1 hr 3 hr 6 hr
6 hour
Temperature (ºF) Pressure Precipitation (in)